Weather History for KCMR - August, 2014

Change the Weather History Date:

Wednesday, August 20, 2014

  Actual Average (KFLG) Record (KFLG)
Temperature  
Mean Temperature 60 °F 64 °F  
Max Temperature 71 °F 78 °F 90 °F (2009)
Min Temperature 50 °F 50 °F 35 °F (1979)
Degree Days  
Heating Degree Days 4 2  
Month to date heating degree days 27  
Since 1 July heating degree days 59  
Cooling Degree Days 0 1  
Month to date cooling degree days 27  
Year to date cooling degree days 108  
Growing Degree Days 10 (Base 50)    
Moisture  
Dew Point 50 °F    
Average Humidity 66    
Maximum Humidity 94    
Minimum Humidity 38    
Precipitation  
Precipitation 0.00 in 0.10 in 1.84 in (2004)
Month to date precipitation 2.09  
Year to date precipitation 13.17  
Snow  
Snow 0.00 in 0.00 in 0.00 in (2002)
Month to date snowfall 0.0  
Since 1 July snowfall 0.0  
Snow Depth -    
Sea Level Pressure  
Sea Level Pressure 30.28 in    
Wind  
Wind Speed 8 mph (SW)    
Max Wind Speed 15 mph    
Max Gust Speed 22 mph    
Visibility 10 miles    
Events      
T = Trace of Precipitation, MM = Missing Value Source: NWS Daily Summary

Daily Weather History Graph

Daily Weather History Graph

Search for Another Location

Airport or City:

Trip Planner

Search our weather history database for the weather conditions in past years. The results will help you decide how hot, cold, wet, or windy it might be!

Date:

Astronomy

Aug. 20, 2014 Rise Set
Actual Time 5:52 AM MST 7:11 PM MST
Civil Twilight 5:25 AM MST 7:37 PM MST
Nautical Twilight 4:53 AM MST 8:09 PM MST
Astronomical Twilight 4:20 AM MST 8:42 PM MST
Moon 1:39 AM MST (8/20) 3:55 PM MST (8/20)
Length of Visible Light 14h 12m
Length of Day
13h 19m
Waning Crescent, 20% of the Moon is Illuminated
Aug 20
Waning Crescent
Aug 25
New
Sep 2
First Quarter
Sep 8
Full
Sep 15
Last Quarter

Hourly Weather History & Observations

Time (MST) Temp. Dew Point Humidity Pressure Visibility Wind Dir Wind Speed Gust Speed Precip Events Conditions
12:15 AM 50.0 °F 48.2 °F 94% 30.22 in 10.0 mi SSE 3.5 mph - N/A   Clear
12:35 AM 55.4 °F 48.2 °F 77% 30.22 in 10.0 mi SSW 6.9 mph - N/A   Clear
12:55 AM 55.4 °F 48.2 °F 77% 30.22 in 10.0 mi SSW 8.1 mph - N/A   Clear
1:15 AM 57.2 °F 48.2 °F 72% 30.21 in 10.0 mi SSW 11.5 mph - N/A   Clear
1:35 AM 57.2 °F 50.0 °F 77% 30.21 in 10.0 mi SSW 12.7 mph 17.3 mph N/A   Clear
1:55 AM 57.2 °F 50.0 °F 77% 30.21 in 10.0 mi SSW 12.7 mph 17.3 mph N/A   Clear
2:15 AM 57.2 °F 50.0 °F 77% 30.22 in 10.0 mi SSW 11.5 mph 18.4 mph N/A   Clear
2:35 AM 57.2 °F 50.0 °F 77% 30.22 in 10.0 mi SSW 11.5 mph 18.4 mph N/A   Clear
2:55 AM 57.2 °F 50.0 °F 77% 30.23 in 10.0 mi SSW 11.5 mph - N/A   Scattered Clouds
3:15 AM 57.2 °F 50.0 °F 77% 30.23 in 10.0 mi SSW 12.7 mph 17.3 mph N/A   Mostly Cloudy
3:35 AM 57.2 °F 51.8 °F 82% 30.23 in 10.0 mi SSW 11.5 mph - N/A   Mostly Cloudy
3:55 AM 57.2 °F 51.8 °F 82% 30.24 in 10.0 mi SW 12.7 mph 21.9 mph N/A   Mostly Cloudy
4:15 AM 57.2 °F 51.8 °F 82% 30.24 in 10.0 mi SSW 12.7 mph 21.9 mph N/A   Mostly Cloudy
4:35 AM 57.2 °F 51.8 °F 82% 30.24 in 10.0 mi SSW 12.7 mph 18.4 mph N/A   Partly Cloudy
4:55 AM 57.2 °F 53.6 °F 88% 30.25 in 10.0 mi SSW 10.4 mph 18.4 mph N/A   Clear
5:15 AM 57.2 °F 53.6 °F 88% 30.25 in 10.0 mi SSW 9.2 mph - N/A   Clear
5:35 AM 57.2 °F 53.6 °F 88% 30.25 in 10.0 mi SSW 9.2 mph - N/A   Clear
5:55 AM 57.2 °F 53.6 °F 88% 30.26 in 10.0 mi SSW 10.4 mph - N/A   Clear
6:15 AM 55.4 °F 53.6 °F 94% 30.27 in 10.0 mi SSE 5.8 mph - N/A   Clear
6:35 AM 55.4 °F 50.0 °F 82% 30.27 in 10.0 mi Calm Calm - N/A   Clear
7:15 AM 59.0 °F 51.8 °F 77% 30.29 in 10.0 mi SSE 8.1 mph - N/A   Partly Cloudy
7:35 AM 59.0 °F 53.6 °F 82% 30.29 in 10.0 mi South 6.9 mph - N/A   Clear
7:55 AM 60.8 °F 53.6 °F 77% 30.29 in 10.0 mi South 11.5 mph - N/A   Clear
8:15 AM 62.6 °F 53.6 °F 72% 30.30 in 10.0 mi South 10.4 mph - N/A   Clear
8:35 AM 62.6 °F 51.8 °F 68% 30.30 in 10.0 mi SSW 6.9 mph - N/A   Clear
8:55 AM 64.4 °F 50.0 °F 59% 30.31 in 10.0 mi SW 4.6 mph - N/A   Clear
9:15 AM 64.4 °F 50.0 °F 59% 30.31 in 10.0 mi SSW 8.1 mph - N/A   Clear
9:35 AM 66.2 °F 50.0 °F 56% 30.31 in 10.0 mi SW 6.9 mph - N/A   Clear
9:55 AM 66.2 °F 50.0 °F 56% 30.31 in 10.0 mi SW 5.8 mph - N/A   Clear
10:15 AM 66.2 °F 48.2 °F 52% 30.32 in 10.0 mi Calm Calm - N/A   Clear
10:35 AM 68.0 °F 48.2 °F 49% 30.32 in 10.0 mi WSW 8.1 mph - N/A   Clear
10:55 AM 68.0 °F 48.2 °F 49% 30.32 in 10.0 mi SW 10.4 mph - N/A   Partly Cloudy
11:15 AM 68.0 °F 48.2 °F 49% 30.32 in 10.0 mi WSW 10.4 mph - N/A   Partly Cloudy
11:35 AM 68.0 °F 48.2 °F 49% 30.32 in 10.0 mi WSW 5.8 mph - N/A   Partly Cloudy
11:55 AM 68.0 °F 48.2 °F 49% 30.31 in 10.0 mi SW 8.1 mph 17.3 mph N/A   Clear
12:15 PM 69.8 °F 48.2 °F 46% 30.31 in 10.0 mi WSW 15.0 mph 19.6 mph N/A   Partly Cloudy
12:35 PM 69.8 °F 48.2 °F 46% 30.31 in 10.0 mi West 12.7 mph - N/A   Partly Cloudy
12:55 PM 71.6 °F 48.2 °F 43% 30.30 in 10.0 mi WSW 12.7 mph 17.3 mph N/A   Clear
1:15 PM 69.8 °F 50.0 °F 49% 30.30 in 10.0 mi SW 11.5 mph 17.3 mph N/A   Partly Cloudy
1:35 PM 69.8 °F 48.2 °F 46% 30.30 in 10.0 mi SSW 11.5 mph 16.1 mph N/A   Partly Cloudy
1:55 PM 71.6 °F 48.2 °F 43% 30.29 in 10.0 mi West 10.4 mph 19.6 mph N/A   Scattered Clouds
2:15 PM 71.6 °F 48.2 °F 43% 30.29 in 10.0 mi SW 12.7 mph 18.4 mph N/A   Partly Cloudy
2:55 PM 71.6 °F 48.2 °F 43% 30.27 in 10.0 mi West 10.4 mph 20.7 mph N/A   Scattered Clouds
3:15 PM 71.6 °F 46.4 °F 41% 30.27 in 10.0 mi SW 11.5 mph 16.1 mph N/A   Partly Cloudy
3:35 PM 71.6 °F 48.2 °F 43% 30.27 in 10.0 mi West 10.4 mph - N/A   Partly Cloudy
3:55 PM 68.0 °F 46.4 °F 46% 30.27 in 10.0 mi West 9.2 mph - N/A   Mostly Cloudy
4:15 PM 71.6 °F 44.6 °F 38% 30.26 in 10.0 mi SSW 6.9 mph - N/A   Mostly Cloudy
4:35 PM 68.0 °F 44.6 °F 43% 30.26 in 10.0 mi WSW 10.4 mph 19.6 mph N/A   Scattered Clouds
4:55 PM 66.2 °F 50.0 °F 56% 30.26 in 8.0 mi WSW 6.9 mph 16.1 mph N/A   Mostly Cloudy
5:15 PM 66.2 °F 48.2 °F 52% 30.27 in 10.0 mi SW 9.2 mph - N/A   Partly Cloudy
5:35 PM 66.2 °F 50.0 °F 56% 30.26 in 10.0 mi Calm Calm - N/A   Mostly Cloudy
5:55 PM 64.4 °F 51.8 °F 64% 30.26 in 10.0 mi Calm Calm - N/A   Partly Cloudy
6:15 PM 66.2 °F 48.2 °F 52% 30.26 in 10.0 mi SW 8.1 mph - N/A   Clear
6:35 PM 66.2 °F 46.4 °F 49% 30.26 in 10.0 mi SSW 4.6 mph - N/A   Clear
6:55 PM 64.4 °F 48.2 °F 56% 30.26 in 10.0 mi Calm Calm - N/A   Clear
7:35 PM 62.6 °F 48.2 °F 59% 30.26 in 10.0 mi Calm Calm - N/A   Clear
7:55 PM 60.8 °F 48.2 °F 63% 30.27 in 10.0 mi Calm Calm - N/A   Clear
8:15 PM 59.0 °F 48.2 °F 67% 30.28 in 10.0 mi Calm Calm - N/A   Clear
8:35 PM 57.2 °F 50.0 °F 77% 30.29 in 10.0 mi Calm Calm - N/A   Clear
8:55 PM 57.2 °F 50.0 °F 77% 30.30 in 10.0 mi Calm Calm - N/A   Clear
9:15 PM 55.4 °F 50.0 °F 82% 30.31 in 10.0 mi Calm Calm - N/A   Clear
9:35 PM 55.4 °F 50.0 °F 82% 30.32 in 10.0 mi SSE 5.8 mph - N/A   Clear
9:55 PM 55.4 °F 50.0 °F 82% 30.31 in 10.0 mi Calm Calm - N/A   Clear
10:15 PM 55.4 °F 48.2 °F 77% 30.31 in 10.0 mi Calm Calm - N/A   Clear
10:35 PM 55.4 °F 48.2 °F 77% 30.32 in 10.0 mi Calm Calm - N/A   Clear
10:55 PM 53.6 °F 48.2 °F 82% 30.32 in 10.0 mi Calm Calm - N/A   Clear
11:15 PM 55.4 °F 48.2 °F 77% 30.32 in 10.0 mi SSE 5.8 mph - N/A   Clear
11:35 PM 53.6 °F 48.2 °F 82% 30.32 in 10.0 mi SSE 3.5 mph - N/A   Partly Cloudy
11:55 PM 53.6 °F 48.2 °F 82% 30.32 in 10.0 mi South 6.9 mph - N/A   Clear